Location: Unspecified
(42.9300°N, 71.1866°W)
Time: 08:17:20
(UTC-04:00)

Genesis I - Visible Passes

Search period start: 05 September 2015 00:00
Search period end: 15 September 2015 00:00
Orbit: 487 x 557 km, 64.5° (Epoch: 04 September)

Date Brightness Start Highest point End Pass type
(mag) Time Alt. Az. Time Alt. Az. Time Alt. Az.
05 Sep 6.7 02:40:39 10° NNE 02:41:34 11° NNE 02:42:37 10° NE visible
05 Sep 3.8 04:16:15 10° NNW 04:20:20 61° NE 04:24:19 10° SE visible
05 Sep 3.3 19:45:25 10° SSW 19:49:30 78° ESE 19:53:39 10° NE visible
05 Sep 6.4 21:25:19 10° WNW 21:27:53 16° NW 21:30:24 10° N visible
06 Sep 6.6 02:26:39 10° NNE 02:27:53 11° NNE 02:29:14 10° NE visible
06 Sep 3.6 04:02:29 10° NNW 04:06:35 65° NE 04:10:35 10° SE visible
06 Sep 5.1 05:42:09 10° W 05:43:57 12° WSW 05:45:34 10° SW visible
06 Sep 3.3 19:31:40 10° SSW 19:35:45 83° ESE 19:39:55 10° NE visible
06 Sep 6.4 21:11:44 10° WNW 21:14:12 15° NW 21:16:34 10° N visible
07 Sep 6.5 02:12:43 10° NNE 02:14:11 12° NNE 02:14:21 12° NE visible
07 Sep 4.9 03:48:44 10° NNW 03:55:05 25° SE 03:56:52 10° SE visible
07 Sep 5.2 05:30:48 11° WSW 05:30:48 11° WSW 05:31:26 10° SW visible
07 Sep 6.4 20:58:10 10° WNW 21:00:29 14° NW 21:02:43 10° N visible
08 Sep 6.4 20:44:36 10° WNW 20:46:46 14° NW 20:48:52 10° N visible
09 Sep 6.4 20:31:03 10° WNW 20:33:04 13° NW 20:34:59 10° N visible
10 Sep 6.4 20:17:31 10° WNW 20:19:21 12° NW 20:21:06 10° N visible
11 Sep 6.4 20:03:59 10° WNW 20:05:39 12° NNW 20:07:11 10° NNW visible
12 Sep 6.4 19:50:30 10° NW 19:51:56 11° NNW 19:53:15 10° NNW visible
13 Sep 6.4 19:37:04 10° NW 19:38:13 11° NNW 19:39:15 10° NNW visible
